TimeCST,TemperatureF,Dew PointF,Humidity,Sea Level PressureIn,VisibilityMPH,Wind Direction,Wind SpeedMPH,Gust SpeedMPH,PrecipitationIn,Events,Conditions,WindDirDegrees,DateUTC
12:35 AM,27.9,17.8,66,30.44,10.0,South,6.9,-,N/A,,Clear,180,2013-01-17 06:35:00
12:55 AM,28.6,18.1,65,30.44,10.0,South,6.9,-,N/A,,Clear,190,2013-01-17 06:55:00
1:15 AM,28.9,18.5,65,30.44,10.0,SSE,6.9,-,N/A,,Clear,150,2013-01-17 07:15:00
1:35 AM,27.9,18.3,67,30.45,10.0,South,6.9,-,N/A,,Clear,180,2013-01-17 07:35:00
1:55 AM,27.9,17.8,66,30.45,10.0,SSW,5.8,-,N/A,,Clear,200,2013-01-17 07:55:00
2:15 AM,27.0,17.8,68,30.46,10.0,South,4.6,-,N/A,,Clear,190,2013-01-17 08:15:00
2:35 AM,26.4,18.3,71,30.47,10.0,SSW,3.5,-,N/A,,Clear,210,2013-01-17 08:35:00
2:55 AM,26.1,18.3,73,30.47,10.0,SSW,5.8,-,N/A,,Clear,200,2013-01-17 08:55:00
3:35 AM,25.7,18.5,74,30.47,10.0,South,6.9,-,N/A,,Clear,180,2013-01-17 09:35:00
3:55 AM,25.3,18.5,75,30.47,10.0,SSW,5.8,-,N/A,,Clear,210,2013-01-17 09:55:00
4:15 AM,25.3,18.5,75,30.47,10.0,SW,6.9,-,N/A,,Clear,220,2013-01-17 10:15:00
4:35 AM,25.3,18.7,76,30.48,10.0,South,4.6,-,N/A,,Clear,170,2013-01-17 10:35:00
4:55 AM,25.2,18.7,76,30.48,10.0,South,9.2,-,N/A,,Clear,170,2013-01-17 10:55:00
5:15 AM,27.1,19.0,72,30.48,10.0,South,8.1,-,N/A,,Clear,170,2013-01-17 11:15:00
5:35 AM,26.8,18.7,72,30.48,10.0,South,4.6,-,N/A,,Clear,180,2013-01-17 11:35:00
5:55 AM,25.7,18.5,74,30.48,10.0,South,8.1,-,N/A,,Clear,190,2013-01-17 11:55:00
6:15 AM,25.5,18.5,75,30.48,10.0,South,3.5,-,N/A,,Clear,180,2013-01-17 12:15:00
6:35 AM,25.3,18.5,75,30.49,10.0,South,6.9,-,N/A,,Clear,190,2013-01-17 12:35:00
6:55 AM,25.0,18.9,78,30.50,10.0,South,4.6,-,N/A,,Clear,170,2013-01-17 12:55:00
7:15 AM,24.6,18.3,77,30.50,10.0,SSE,6.9,-,N/A,,Clear,160,2013-01-17 13:15:00
7:35 AM,24.8,18.5,77,30.51,10.0,South,6.9,-,N/A,,Clear,190,2013-01-17 13:35:00
7:55 AM,24.4,18.5,78,30.51,10.0,South,8.1,-,N/A,,Clear,180,2013-01-17 13:55:00
8:15 AM,24.8,19.0,79,30.52,10.0,SSW,5.8,-,N/A,,Clear,210,2013-01-17 14:15:00
8:35 AM,27.3,20.8,77,30.52,10.0,South,3.5,-,N/A,,Clear,180,2013-01-17 14:35:00
8:55 AM,31.5,23.4,72,30.53,10.0,Calm,Calm,-,N/A,,Clear,0,2013-01-17 14:55:00
9:15 AM,35.4,24.1,63,30.54,10.0,Calm,Calm,-,N/A,,Clear,0,2013-01-17 15:15:00
9:35 AM,39.2,25.0,57,30.54,10.0,Calm,Calm,-,N/A,,Clear,0,2013-01-17 15:35:00
9:55 AM,42.4,21.7,44,30.55,10.0,Calm,Calm,-,N/A,,Clear,0,2013-01-17 15:55:00
10:15 AM,44.4,20.3,38,30.56,10.0,Calm,Calm,-,N/A,,Clear,0,2013-01-17 16:15:00
10:35 AM,46.0,19.9,35,30.56,10.0,Calm,Calm,-,N/A,,Clear,0,2013-01-17 16:35:00
10:55 AM,46.6,20.8,36,30.56,10.0,Calm,Calm,-,N/A,,Clear,0,2013-01-17 16:55:00
11:15 AM,47.8,21.9,36,30.56,10.0,NE,5.8,-,N/A,,Clear,40,2013-01-17 17:15:00
11:35 AM,49.1,23.2,36,30.55,10.0,Calm,Calm,-,N/A,,Clear,0,2013-01-17 17:35:00
11:55 AM,49.8,23.5,36,30.54,10.0,NNE,6.9,-,N/A,,Clear,20,2013-01-17 17:55:00
12:15 PM,51.6,24.8,35,30.54,10.0,ENE,8.1,-,N/A,,Clear,70,2013-01-17 18:15:00
12:35 PM,52.2,25.0,35,30.52,10.0,NE,10.4,-,N/A,,Clear,50,2013-01-17 18:35:00
12:55 PM,52.7,24.3,33,30.51,10.0,ENE,6.9,16.1,N/A,,Clear,70,2013-01-17 18:55:00
1:15 PM,53.2,24.3,32,30.50,10.0,NE,6.9,-,N/A,,Clear,50,2013-01-17 19:15:00
1:35 PM,53.6,23.9,32,30.49,10.0,NNE,4.6,-,N/A,,Clear,30,2013-01-17 19:35:00
1:55 PM,54.3,23.5,30,30.48,10.0,NNE,8.1,-,N/A,,Clear,30,2013-01-17 19:55:00
2:15 PM,54.5,23.7,30,30.47,10.0,NE,6.9,-,N/A,,Clear,50,2013-01-17 20:15:00
2:35 PM,55.0,23.9,30,30.46,10.0,NE,8.1,-,N/A,,Clear,50,2013-01-17 20:35:00
2:55 PM,55.4,23.9,30,30.46,10.0,NE,11.5,-,N/A,,Clear,50,2013-01-17 20:55:00
3:15 PM,55.2,23.7,30,30.46,10.0,ENE,10.4,-,N/A,,Clear,60,2013-01-17 21:15:00
3:55 PM,55.0,23.2,29,30.46,10.0,East,12.7,16.1,N/A,,Clear,80,2013-01-17 21:55:00
4:55 PM,54.0,23.0,30,30.47,10.0,ENE,8.1,-,N/A,,Clear,70,2013-01-17 22:55:00
5:35 PM,52.9,22.8,31,30.47,10.0,ENE,8.1,-,N/A,,Clear,70,2013-01-17 23:35:00
5:55 PM,51.8,22.8,32,30.48,10.0,East,6.9,-,N/A,,Clear,90,2013-01-17 23:55:00
6:35 PM,47.5,23.0,38,30.49,10.0,ESE,6.9,-,N/A,,Clear,110,2013-01-18 00:35:00
7:15 PM,42.1,22.8,46,30.50,10.0,SE,6.9,-,N/A,,Clear,140,2013-01-18 01:15:00
7:55 PM,37.0,23.2,57,30.51,10.0,SE,6.9,-,N/A,,Clear,140,2013-01-18 01:55:00
8:15 PM,36.0,23.5,61,30.52,10.0,SE,5.8,-,N/A,,Clear,140,2013-01-18 02:15:00
8:55 PM,32.2,23.0,69,30.52,10.0,South,5.8,-,N/A,,Clear,190,2013-01-18 02:55:00
9:15 PM,34.2,23.4,65,30.52,10.0,SSE,5.8,-,N/A,,Clear,160,2013-01-18 03:15:00
9:55 PM,32.2,23.2,69,30.52,10.0,South,4.6,-,N/A,,Clear,190,2013-01-18 03:55:00
11:15 PM,29.8,23.2,76,30.52,10.0,SW,5.8,-,N/A,,Clear,220,2013-01-18 05:15:00
11:35 PM,30.0,23.4,76,30.51,10.0,SW,4.6,-,N/A,,Clear,230,2013-01-18 05:35:00
11:55 PM,29.8,23.2,76,30.51,10.0,Calm,Calm,-,N/A,,Clear,0,2013-01-18 05:55:00